Location: Borotín
(49.5055°N, 14.6142°E)
Time: 06:28:57
(UTC+00:00)

USA-17 - Pass Details

Date: 27 May 2022
Orbit: 384 x 1760 km, 63.3° (Epoch: 28 June)

Event Time Altitude Azimuth Distance (km) Brightness Sun altitude
Rises 01:02:23 0° 317° (NW) 2,323 8.3 -14.1°
Reaches altitude 10° 01:04:15 10° 317° (NW) 1,518 7.3 -13.9°
Maximum altitude 01:07:30 85° 231° (SW) 491 4.5 -13.7°
Drops below altitude 10° 01:11:40 10° 141° (SE) 1,928 7.4 -13.3°
Sets 01:14:17 0° 141° (SE) 3,034 8.4 -13.1°
